Find Starlink 5994

NORAD ID: 56457 Int'l Des: 2023-064 Owner: SPXS Country: US Constellation: starlink operational
LEOCIRCULAR

Live Position

Loading 3D Globe...

About Starlink 5994

Description loading...

Upcoming Passes

Passes for default location (London). Set your location on the main map for personalized predictions.

Altitude History

Loading altitude history...

Two-Line Element Set

1 56457U 23064K 26126.09032713 .00000113 00000-0 17293-4 0 9995
2 56457 69.9999 359.7491 0002591 277.0928 82.9937 14.98334323163840
Epoch: May 6, 2026 • Age: 9 hours

Current Status

Altitude 582.2 km
Velocity 7.57 km/s
Sub-Earth Point 54.95°N, 122.82°E
Launch Date May 10, 2023
Age 2.9 years
Type internet

Technical Details

Classification Payload
Mass 305.00 kg
Dry Mass 290.00 kg
Total Mass 305.00 kg
Length 0.20 m
Diameter 2.80 m
Span 9.00 m
Shape Box + pan
Manufacturer SPXS
Bus Type Starlink
Phase Status In Orbit
Owner/State SPXS/US

Most Searched